Raton, NM

10:32 PM MDT on July 25, 2017 (GMT -0600)
Raton Municipal-Crews

Weather History for KRTN - November, 2013

Change the Weather History Date:

Saturday, November 16, 2013

  Actual Average (KTAD) Record (KTAD)
Temperature  
Mean Temperature 46 °F -  
Max Temperature 57 °F 56 °F 79 °F (2016)
Min Temperature 36 °F 26 °F -5 °F (1955)
Degree Days  
Heating Degree Days 18    
Moisture  
Dew Point 26 °F    
Average Humidity 49    
Maximum Humidity 82    
Minimum Humidity 23    
Precipitation  
Precipitation 0.00 in - - ()
Sea Level Pressure  
Sea Level Pressure 29.46 in    
Wind  
Wind Speed 14 mph (SW)    
Max Wind Speed 34 mph    
Max Gust Speed 44 mph    
Visibility 10 miles    
Events      
Averages and records for this station are not official NWS values.
T = Trace of Precipitation, MM = Missing Value Source: NWS Daily Summary

Daily Weather History Graph

Daily Weather History Graph

Search for Another Location

Airport or City:

Trip Planner

Search our weather history database for the weather conditions in past years. The results will help you decide how hot, cold, wet, or windy it might be!

Date:

Astronomy

Nov. 16, 2013 Rise Set
Actual Time 6:37 AM MST 4:47 PM MST
Civil Twilight 6:09 AM MST 5:15 PM MST
Nautical Twilight 5:38 AM MST 5:46 PM MST
Astronomical Twilight 5:07 AM MST 6:17 PM MST
Moon 4:23 PM MST (11/16) 5:37 AM MST (11/16)
Length of Visible Light 11h 05m
Length of Day
10h 10m
Waxing Gibbous, 99% of the Moon is Illuminated
Nov 16
Waxing Gibbous
Nov 17
Full
Nov 25
Last Quarter
Dec 2
New
Dec 9
First Quarter

Hourly Weather History & Observations

Time (MST) Temp. Windchill Dew Point Humidity Pressure Visibility Wind Dir Wind Speed Gust Speed Precip Events Conditions
12:53 AM 39.9 °F 33.9 °F 33.1 °F 77% 29.48 in 10.0 mi South 9.2 mph - N/A   Clear
1:53 AM 39.0 °F 34.8 °F 33.1 °F 79% 29.49 in 10.0 mi SSW 5.8 mph - N/A   Clear
2:53 AM 37.9 °F 35.5 °F 32.0 °F 79% 29.48 in 10.0 mi Variable 3.5 mph - N/A   Clear
3:53 AM 36.0 °F 31.1 °F 30.9 °F 82% 29.47 in 10.0 mi South 5.8 mph - N/A   Clear
4:53 AM 37.0 °F - 30.0 °F 76% 29.47 in 10.0 mi Calm Calm - N/A   Clear
5:49 AM 37.4 °F 29.3 °F 28.4 °F 70% 29.57 in 10.0 mi SSW 12.7 mph - N/A   Clear
5:53 AM 37.9 °F 28.5 °F 28.9 °F 70% 29.47 in 10.0 mi SSW 17.3 mph - N/A   Clear
6:53 AM 39.9 °F 33.4 °F 28.0 °F 63% 29.47 in 10.0 mi South 10.4 mph - N/A   Clear
7:53 AM 46.9 °F - 30.0 °F 52% 29.47 in 10.0 mi SSW 12.7 mph 20.7 mph N/A   Clear
8:53 AM 53.1 °F - 19.9 °F 27% 29.44 in 10.0 mi West 19.6 mph 28.8 mph N/A   Clear
9:53 AM 55.0 °F - 21.9 °F 28% 29.44 in 10.0 mi WSW 24.2 mph 34.5 mph N/A   Clear
10:53 AM 55.9 °F - 18.0 °F 23% 29.42 in 10.0 mi WSW 29.9 mph 43.7 mph N/A   Clear
11:53 AM 57.0 °F - 19.0 °F 23% 29.39 in 10.0 mi West 34.5 mph 43.7 mph N/A   Clear
12:53 PM 57.0 °F - 21.0 °F 25% 29.40 in 10.0 mi West 21.9 mph 34.5 mph N/A   Clear
1:53 PM 55.0 °F - 21.9 °F 28% 29.40 in 10.0 mi SW 25.3 mph 32.2 mph N/A   Clear
2:53 PM 55.0 °F - 23.0 °F 29% 29.40 in 10.0 mi West 31.1 mph 43.7 mph N/A   Clear
3:53 PM 52.0 °F - 25.0 °F 35% 29.45 in 10.0 mi West 31.1 mph 43.7 mph N/A   Clear
4:53 PM 46.9 °F - 25.0 °F 42% 29.48 in 10.0 mi WSW 11.5 mph 21.9 mph N/A   Clear
5:53 PM 46.9 °F - 24.1 °F 41% 29.48 in 10.0 mi SW 16.1 mph - N/A   Clear
6:53 PM 41.0 °F 35.2 °F 26.1 °F 55% 29.52 in 10.0 mi South 9.2 mph - N/A   Clear
7:53 PM 45.0 °F 39.7 °F 25.0 °F 46% 29.48 in 10.0 mi WSW 10.4 mph - N/A   Clear
8:53 PM 48.0 °F - 26.1 °F 42% 29.43 in 10.0 mi WSW 18.4 mph 27.6 mph N/A   Clear
9:53 PM 46.9 °F - 26.1 °F 44% 29.44 in 10.0 mi SW 17.3 mph - N/A   Clear
10:53 PM 48.9 °F - 25.0 °F 39% 29.44 in 10.0 mi West 27.6 mph 34.5 mph N/A   Clear
11:53 PM 45.0 °F 37.6 °F 26.1 °F 48% 29.46 in 10.0 mi SW 17.3 mph 25.3 mph N/A   Clear